Location: Azul
(36.7830°S, 59.8500°W)
Time: 08:05:44
(UTC-03:00)

ISS - Pass Details

Date: 28 May 2020
Orbit: 417 x 419 km, 51.6° (Epoch: 31 May)

Event Time Altitude Azimuth Distance (km) Brightness Sun altitude
Exits shadow 06:26:44 12° 178° (S) 1,404 -1.2 -18.5°
Drops below altitude 10° 06:27:21 10° 168° (SSE) 1,529 -0.9 -18.4°
Sets 06:30:14 0° 142° (SE) 2,398 0.4 -17.8°
